This is the latest recevied weather packets stored in our database for station/object AA4XD. If no packets are shown the sender has not sent any weather packets the latest 10 day(s).
| Time | Temp. | Humidity | Pressure | Rain* | Wind** | Luminosity | Snow |
|---|---|---|---|---|---|---|---|
| 1777735635 | 25° C | 87% | 1009.2 hPa | 0 mm | - | 13 W/m² | - |
| 1777735332 | 25° C | 87% | 1009.3 hPa | 0 mm | - | 30 W/m² | - |
| 1777735029 | 25° C | 86% | 1009.1 hPa | 0 mm | - | 33 W/m² | - |
| 1777734726 | 25° C | 86% | 1008.9 hPa | 0 mm | - | 22 W/m² | - |
| 1777734424 | 24.44° C | 86% | 1009.1 hPa | 0 mm | - | 22 W/m² | - |
| 1777734120 | 24.44° C | 86% | 1009 hPa | 0 mm | - | 20 W/m² | - |
| 1777733816 | 24.44° C | 87% | 1009 hPa | 0 mm | - | 29 W/m² | - |
| 1777733513 | 24.44° C | 87% | 1008.7 hPa | 0 mm | - | 25 W/m² | - |
| 1777733209 | 23.89° C | 88% | 1008.8 hPa | 0 mm | - | 30 W/m² | - |
| 1777732906 | 23.33° C | 88% | 1008.9 hPa | 0 mm | - | 34 W/m² | - |
| 1777732603 | 23.33° C | 88% | 1008.6 hPa | 0 mm | - | 36 W/m² | - |
| 1777732300 | 22.78° C | 89% | 1008.7 hPa | 0 mm | - | 34 W/m² | - |
| 1777731997 | 22.78° C | 89% | 1008.8 hPa | 0 mm | - | 34 W/m² | - |
| 1777731694 | 22.22° C | 89% | 1008.6 hPa | 0 mm | - | 35 W/m² | - |
| 1777731391 | 22.22° C | 89% | 1008.9 hPa | 0 mm | - | 22 W/m² | - |
| 1777731089 | 22.22° C | 89% | 1009 hPa | 0 mm | - | 26 W/m² | - |
| 1777730788 | 22.22° C | 90% | 1009 hPa | 0 mm | - | 35 W/m² | - |
| 1777730484 | 22.22° C | 90% | 1009.1 hPa | 0 mm | - | 33 W/m² | - |
| 1777730180 | 22.22° C | 89% | 1009.1 hPa | 0 mm | - | 30 W/m² | - |
| 1777729877 | 21.67° C | 89% | 1009.3 hPa | 0 mm | - | 24 W/m² | - |
| 1777729573 | 21.67° C | 89% | 1009.3 hPa | 0 mm | - | 21 W/m² | - |
| 1777729270 | 21.67° C | 89% | 1009.1 hPa | 0 mm | - | 23 W/m² | - |
| 1777728967 | 21.67° C | 89% | 1009.3 hPa | 0 mm | - | 21 W/m² | - |
| 1777728663 | 21.67° C | 88% | 1008.9 hPa | 0 mm | - | 19 W/m² | - |
| 1777728361 | 21.67° C | 88% | 1008.7 hPa | 0 mm | - | 17 W/m² | - |
* Rain latest hour (hover to see other rain measurements)
** Current wind speed in m/s (hover to see current wind gust speed)